When you browse on this site, cookies collect data to enhance your experience and personalize the content and advertising you see.
Visit our Privacy Policy to learn more. By continuing to use the site, you agree to this use of cookies and data.
  • In Hungary
  • List of Countries
  • For 7 days
  • Water Temperature
  • Satellite Maps
  • Weather Map
  • News
  • Weather Widgets
  • user-avatar
    Login

    Hourly Weather Kajhajdi

    Today, 21 November, Wednesday

    Time Temperature Precipitation Wind Pressure Humidity
    00:00 +30°C° 0 mm 4 mps 759 mmHg 29%
    01:00 +30°C° 0 mm 4 mps 758 mmHg 30%
    02:00 +29°C° 0 mm 4 mps 758 mmHg 30%
    03:00 +29°C° 0 mm 4 mps 758 mmHg 31%
    04:00 +28°C° 0 mm 4 mps 758 mmHg 32%
    05:00 +28°C° 0 mm 4 mps 758 mmHg 33%
    06:00 +29°C° 0 mm 4 mps 759 mmHg 32%
    07:00 +30°C° 0 mm 4 mps 759 mmHg 30%
    08:00 +30°C° 0 mm 5 mps 759 mmHg 28%
    09:00 +33°C° 0 mm 4 mps 759 mmHg 26%
    10:00 +35°C° 0 mm 4 mps 759 mmHg 24%
    11:00 +36°C° 0 mm 4 mps 759 mmHg 21%
    12:00 +37°C° 0 mm 4 mps 758 mmHg 20%
    13:00 +38°C° 0 mm 3 mps 758 mmHg 19%
    14:00 +38°C° 0 mm 3 mps 757 mmHg 18%
    15:00 +38°C° 0 mm 3 mps 757 mmHg 18%
    16:00 +38°C° 0 mm 2 mps 757 mmHg 18%
    17:00 +38°C° 0 mm 2 mps 757 mmHg 18%
    18:00 +37°C° 0 mm 3 mps 757 mmHg 19%
    19:00 +36°C° 0 mm 3 mps 758 mmHg 20%
    20:00 +35°C° 0 mm 4 mps 758 mmHg 22%
    21:00 +34°C° 0 mm 4 mps 758 mmHg 23%
    22:00 +34°C° 0 mm 5 mps 758 mmHg 24%
    23:00 +33°C° 0 mm 6 mps 758 mmHg 25%

    Tomorrow, 22 November, Thursday

    Time Temperature Precipitation Wind Pressure Humidity
    00:00 +32°C° 0 mm 6 mps 758 mmHg 25%
    01:00 +32°C° 0 mm 6 mps 758 mmHg 26%
    02:00 +30°C° 0 mm 5 mps 757 mmHg 26%
    03:00 +30°C° 0 mm 5 mps 758 mmHg 27%
    04:00 +29°C° 0 mm 5 mps 758 mmHg 28%
    05:00 +29°C° 0 mm 4 mps 758 mmHg 28%
    06:00 +30°C° 0 mm 5 mps 758 mmHg 27%
    07:00 +32°C° 0 mm 6 mps 759 mmHg 25%
    08:00 +33°C° 0 mm 6 mps 759 mmHg 24%
    09:00 +34°C° 0 mm 6 mps 759 mmHg 22%
    10:00 +36°C° 0 mm 6 mps 759 mmHg 19%
    11:00 +39°C° 0 mm 6 mps 758 mmHg 17%
    12:00 +40°C° 0 mm 5 mps 758 mmHg 17%
    13:00 +40°C° 0 mm 4 mps 757 mmHg 16%
    14:00 +40°C° 0 mm 3 mps 756 mmHg 15%
    15:00 +40°C° 0 mm 3 mps 756 mmHg 16%
    16:00 +39°C° 0 mm 3 mps 756 mmHg 16%
    17:00 +39°C° 0 mm 3 mps 756 mmHg 17%
    18:00 +38°C° 0 mm 4 mps 756 mmHg 18%
    19:00 +37°C° 0 mm 5 mps 757 mmHg 19%
    20:00 +36°C° 0 mm 6 mps 757 mmHg 20%
    21:00 +35°C° 0 mm 6 mps 757 mmHg 22%
    22:00 +34°C° 0 mm 7 mps 757 mmHg 23%
    23:00 +34°C° 0 mm 7 mps 757 mmHg 25%

    Day after tomorrow, 23 November, Friday

    Time Temperature Precipitation Wind Pressure Humidity
    00:00 +33°C° 0 mm 7 mps 757 mmHg 26%
    01:00 +32°C° 0 mm 8 mps 757 mmHg 27%
    02:00 +32°C° 0 mm 8 mps 757 mmHg 28%
    03:00 +30°C° 0 mm 7 mps 757 mmHg 28%
    04:00 +30°C° 0 mm 7 mps 757 mmHg 28%
    05:00 +29°C° 0 mm 7 mps 757 mmHg 28%
    06:00 +31°C° 0 mm 8 mps 758 mmHg 27%
    07:00 +31°C° 0 mm 8 mps 758 mmHg 26%
    08:00 +32°C° 0 mm 8 mps 759 mmHg 25%
    09:00 +34°C° 0 mm 8 mps 759 mmHg 23%
    10:00 +35°C° 0 mm 8 mps 759 mmHg 21%
    11:00 +38°C° 0 mm 8 mps 759 mmHg 19%
    12:00 +39°C° 0 mm 8 mps 758 mmHg 18%
    13:00 +39°C° 0 mm 7 mps 757 mmHg 17%
    14:00 +40°C° 0 mm 7 mps 756 mmHg 16%
    15:00 +39°C° 0 mm 7 mps 756 mmHg 17%
    16:00 +39°C° 0 mm 6 mps 756 mmHg 17%
    17:00 +38°C° 0 mm 6 mps 756 mmHg 18%
    18:00 +36°C° 0 mm 6 mps 756 mmHg 19%
    19:00 +35°C° 0 mm 6 mps 757 mmHg 20%
    20:00 +35°C° 0 mm 6 mps 757 mmHg 21%
    21:00 +34°C° 0 mm 6 mps 757 mmHg 23%
    22:00 +33°C° 0 mm 7 mps 757 mmHg 25%
    23:00 +32°C° 0 mm 7 mps 757 mmHg 27%

    24 November, Saturday

    Time Temperature Precipitation Wind Pressure Humidity
    00:00 +30°C° 0 mm 7 mps 757 mmHg 28%
    01:00 +30°C° 0 mm 7 mps 757 mmHg 28%
    02:00 +30°C° 0 mm 7 mps 756 mmHg 29%
    03:00 +29°C° 0 mm 7 mps 756 mmHg 30%
    04:00 +29°C° 0 mm 7 mps 756 mmHg 32%
    05:00 +29°C° 0 mm 7 mps 756 mmHg 33%
    06:00 +29°C° 0 mm 7 mps 757 mmHg 31%
    07:00 +30°C° 0 mm 7 mps 758 mmHg 30%
    08:00 +30°C° 0 mm 7 mps 758 mmHg 28%
    09:00 +33°C° 0 mm 7 mps 758 mmHg 25%
    10:00 +35°C° 0 mm 7 mps 758 mmHg 21%
    11:00 +38°C° 0 mm 7 mps 758 mmHg 18%
    12:00 +39°C° 0 mm 6 mps 757 mmHg 16%
    13:00 +40°C° 0 mm 5 mps 756 mmHg 15%
    14:00 +41°C° 0 mm 5 mps 756 mmHg 13%
    15:00 +41°C° 0 mm 4 mps 756 mmHg 13%
    16:00 +40°C° 0 mm 4 mps 756 mmHg 14%
    17:00 +40°C° 0 mm 4 mps 756 mmHg 14%
    18:00 +38°C° 0 mm 4 mps 756 mmHg 16%
    19:00 +37°C° 0 mm 5 mps 757 mmHg 18%
    20:00 +36°C° 0 mm 5 mps 757 mmHg 20%
    21:00 +35°C° 0 mm 6 mps 757 mmHg 22%
    22:00 +34°C° 0 mm 6 mps 758 mmHg 24%
    23:00 +33°C° 0 mm 6 mps 758 mmHg 25%

    25 November, Sunday

    Time Temperature Precipitation Wind Pressure Humidity
    00:00 +33°C° 0 mm 6 mps 757 mmHg 27%
    01:00 +32°C° 0 mm 6 mps 757 mmHg 28%
    02:00 +32°C° 0 mm 6 mps 756 mmHg 30%
    03:00 +30°C° 0 mm 6 mps 757 mmHg 31%
    04:00 +30°C° 0 mm 5 mps 757 mmHg 33%
    05:00 +29°C° 0 mm 5 mps 757 mmHg 34%
    06:00 +30°C° 0 mm 5 mps 757 mmHg 33%
    07:00 +30°C° 0 mm 6 mps 758 mmHg 32%
    08:00 +32°C° 0 mm 6 mps 758 mmHg 31%
    09:00 +33°C° 0 mm 6 mps 758 mmHg 28%
    10:00 +35°C° 0 mm 6 mps 758 mmHg 25%
    11:00 +36°C° 0 mm 6 mps 758 mmHg 21%
    12:00 +38°C° 0 mm 6 mps 757 mmHg 19%
    13:00 +39°C° 0 mm 6 mps 756 mmHg 17%
    14:00 +40°C° 0 mm 5 mps 756 mmHg 15%
    15:00 +40°C° 0 mm 5 mps 756 mmHg 16%
    16:00 +38°C° 0 mm 4 mps 756 mmHg 16%
    17:00 +38°C° 0 mm 4 mps 756 mmHg 17%
    18:00 +37°C° 0 mm 4 mps 756 mmHg 18%
    19:00 +36°C° 0 mm 5 mps 757 mmHg 19%
    20:00 +35°C° 0 mm 5 mps 757 mmHg 21%
    21:00 +34°C° 0 mm 5 mps 757 mmHg 22%
    22:00 +33°C° 0 mm 5 mps 757 mmHg 23%
    23:00 +33°C° 0 mm 5 mps 757 mmHg 25%

    26 November, Monday

    Time Temperature Precipitation Wind Pressure Humidity
    00:00 +32°C° 0 mm 5 mps 756 mmHg 26%
    01:00 +32°C° 0 mm 5 mps 756 mmHg 28%
    02:00 +30°C° 0 mm 5 mps 756 mmHg 29%
    03:00 +30°C° 0 mm 5 mps 756 mmHg 30%
    04:00 +29°C° 0 mm 5 mps 756 mmHg 31%
    05:00 +29°C° 0 mm 5 mps 756 mmHg 32%
    06:00 +29°C° 0 mm 5 mps 757 mmHg 31%
    07:00 +30°C° 0 mm 6 mps 757 mmHg 30%
    08:00 +32°C° 0 mm 7 mps 757 mmHg 28%
    09:00 +33°C° 0 mm 6 mps 757 mmHg 25%
    10:00 +35°C° 0 mm 6 mps 757 mmHg 21%
    11:00 +36°C° 0 mm 6 mps 757 mmHg 18%
    12:00 +38°C° 0 mm 6 mps 756 mmHg 16%
    13:00 +39°C° 0 mm 5 mps 755 mmHg 14%
    14:00 +40°C° 0 mm 5 mps 755 mmHg 11%
    15:00 +40°C° 0 mm 4 mps 755 mmHg 12%
    16:00 +38°C° 0 mm 4 mps 755 mmHg 12%
    17:00 +37°C° 0 mm 3 mps 755 mmHg 12%
    18:00 +36°C° 0 mm 3 mps 756 mmHg 14%
    19:00 +35°C° 0 mm 4 mps 756 mmHg 15%
    20:00 +34°C° 0 mm 4 mps 757 mmHg 16%
    21:00 +34°C° 0 mm 4 mps 756 mmHg 17%
    22:00 +33°C° 0 mm 4 mps 756 mmHg 17%
    23:00 +33°C° 0 mm 4 mps 756 mmHg 18%
    Show more